User: anonymous   Login
Location: Newark
(14.9306°N, 3.4333°E)
Time: 19:46:46
(UTC+00:00)
Language:

First-Move - Orbit

View from above orbital plane
View from above orbital plane
View from above satellite
View from above satellite

Ground track
Ground track

The orbit data is extracted from the following two-line orbital elements,

1 39439U 13066Z   21026.47468201  .00000851  00000-0  10906-3 0  9990
2 39439  97.5866  19.4020 0063419 265.1682  94.2289 14.82408824388004
Epoch (UTC): 26 January 2021 11:23:32
Eccentricity: 0.0063419
inclination: 97.5866°
perigee height: 577 km
apogee height: 666 km
right ascension of ascending node: 19.4020°
argument of perigee: 265.1682°
revolutions per day: 14.82408824
mean anomaly at epoch: 94.2289°
orbit number at epoch: 38800

The dashed part of the orbit path shows where the satellite is in the earth's shadow,  

DLR